Regional Weather Roundup
Issued by NWS

Home | Current Version | Previous Version | Graphics & Text | Print | Product List | Glossary On
Versions: 1 2 3 4 5 6 7 8 9 10 11 12 13 14 15 16 17 18 19 20 21 22 23 24 25 26 27 28 29 30 31 32 33 34 35 36 37 38 39 40 41 42 43 44 45 46 47 48 49 50
000
ASUS43 KLSX 240207
RWRMO

WEATHER SUMMARY FOR MISSOURI
NATIONAL WEATHER SERVICE SPRINGFIELD MO
800 PM CST MON JAN 23 2017

NOTE: "FAIR" INDICATES FEW OR NO CLOUDS BELOW 12,000 FEET WITH NO
       SIGNIFICANT WEATHER AND/OR OBSTRUCTIONS TO VISIBILITY.
       CURRENT SKY AND/OR WEATHER CONDITIONS ARE NOT AVAILABLE FOR
       CHILLICOTHE AND FARMINGTON.

MOZ001>031-035>038-043-044-053-054-240300-
...NORTHERN AND WESTERN MISSOURI...

CITY           SKY/WX    TMP DP  RH WIND       PRES   REMARKS
KANSAS CTY INT CLEAR     33  28  81 SE8       29.83S WCI  26
KANSAS C DTWN  CLEAR     37  31  78 E3        29.84S
LEE`S SUMMIT   CLEAR     35  32  88 E5        29.84S
ST JOSEPH      MOCLDY    33  30  88 E6        29.85R WCI  28
CHILLICOTHE      N/A     35  29  78 CALM      29.88R
KIRKSVILLE     CLOUDY    33  29  85 CALM      29.86F

$$
MOZ066>068-077>081-088>096-101>105-240300-
...SOUTHWEST MISSOURI...

CITY           SKY/WX    TMP DP  RH WIND       PRES   REMARKS
SPRINGFIELD    CLEAR     36  30  79 E5        29.82S
JOPLIN         CLEAR     41  32  70 CALM      29.82S
BRANSON        CLEAR     39  32  75 CALM      29.84F

$$
MOZ032>034-039>042-045>050-055>058-069>072-240300-
...CENTRAL MISSOURI...

CITY           SKY/WX    TMP DP  RH WIND       PRES   REMARKS
COLUMBIA       CLOUDY    36  31  82 W3        29.86R
JEFFERSON CITY MOCLDY    36  30  79 N6        29.88R
ROLLA          CLEAR     33  31  92 CALM      29.83S
SEDALIA        PTCLDY    33  30  88 CALM      29.87F
WHITEMAN AFB   CLEAR     34  34 100 E3        29.85S
WARRENSBURG    CLEAR     34  32  93 CALM      29.86R
OSAGE BEACH    CLEAR     31  29  92 CALM      29.87R

$$
MOZ051-052-059>065-240300-
...EAST CENTRAL MISSOURI...

CITY           SKY/WX    TMP DP  RH WIND       PRES   REMARKS
ST LOUIS INTL  CLOUDY    42  33  70 N8        29.86S
SPIRIT OF STL  CLOUDY    42  34  73 NW5       29.85F
ST CHARLES     CLOUDY    41  33  73 NW8       29.85F

$$
MOZ072>076-082>087-097>100-106>115-240300-
...SOUTH CENTRAL AND SOUTHEAST MISSOURI...

CITY           SKY/WX    TMP DP  RH WIND       PRES   REMARKS
CAPE GIRARDEAU PTCLDY    41  34  76 N6        29.86R
FARMINGTON     CLEAR     36  32  85 CALM      29.85R
POPLAR BLUFF   CLEAR     39  35  86 CALM      29.86R
WEST PLAINS    CLEAR     36  30  79 CALM      29.85S

$$


USA.gov is the U.S. government's official web portal to all federal, state and local government web resources and services.